This is the latest recevied weather packets stored in our database for station/object KF6YUA. If no packets are shown the sender has not sent any weather packets the latest 10 day(s).
| Time | Temp. | Humidity | Pressure | Rain* | Wind** | Luminosity | Snow |
|---|---|---|---|---|---|---|---|
| 1778036013 | 14.44° C | 84% | 1018 hPa | 0 mm | - | 0 W/m² | - |
| 1778035711 | 14.44° C | 84% | 1018 hPa | 0 mm | - | 2 W/m² | - |
| 1778035407 | 14.44° C | 83% | 1017.9 hPa | 0 mm | - | 7 W/m² | - |
| 1778035104 | 14.44° C | 83% | 1017.9 hPa | 0 mm | - | 10 W/m² | - |
| 1778034800 | 14.44° C | 83% | 1017.8 hPa | 0 mm | - | 16 W/m² | - |
| 1778034497 | 14.44° C | 82% | 1017.6 hPa | 0 mm | - | 18 W/m² | - |
| 1778034195 | 14.44° C | 83% | 1017.8 hPa | 0 mm | - | 22 W/m² | - |
| 1778033893 | 15° C | 83% | 1017.8 hPa | 0 mm | - | 24 W/m² | - |
| 1778033590 | 14.44° C | 82% | 1017.6 hPa | 0 mm | - | 31 W/m² | - |
| 1778033286 | 14.44° C | 82% | 1017.6 hPa | 0 mm | - | 35 W/m² | - |
| 1778032984 | 15° C | 82% | 1017.6 hPa | 0 mm | - | 44 W/m² | - |
| 1778032682 | 15° C | 81% | 1017.6 hPa | 0 mm | - | 46 W/m² | - |
| 1778032379 | 15° C | 81% | 1017.7 hPa | 0 mm | - | 49 W/m² | - |
| 1778032075 | 15° C | 81% | 1017.6 hPa | 0 mm | - | 53 W/m² | - |
| 1778031772 | 15° C | 80% | 1017.4 hPa | 0 mm | - | 54 W/m² | - |
| 1778031469 | 15° C | 80% | 1017.4 hPa | 0 mm | - | 62 W/m² | - |
| 1778030863 | 15° C | 80% | 1017.4 hPa | 0 mm | - | 81 W/m² | - |
| 1778030560 | 15° C | 79% | 1017.6 hPa | 0 mm | - | 83 W/m² | - |
| 1778030257 | 15.56° C | 79% | 1017.4 hPa | 0 mm | - | 86 W/m² | - |
| 1778029953 | 15.56° C | 78% | 1017.4 hPa | 0 mm | - | 87 W/m² | - |
| 1778029652 | 15.56° C | 78% | 1017.5 hPa | 0 mm | - | 95 W/m² | - |
| 1778029348 | 15.56° C | 78% | 1017.4 hPa | 0 mm | - | 106 W/m² | - |
| 1778029046 | 15.56° C | 78% | 1017.3 hPa | 0 mm | - | 109 W/m² | - |
| 1778028742 | 16.11° C | 77% | 1017.5 hPa | 0 mm | - | 120 W/m² | - |
| 1778028438 | 16.11° C | 79% | 1017.5 hPa | 0 mm | - | 117 W/m² | - |
* Rain latest hour (hover to see other rain measurements)
** Current wind speed in m/s (hover to see current wind gust speed)